| time (UTC) | temp C | wind direction | speed KPH | gust KPH | rain 1hr cm | rain 24hr cm | rain mn cm | humidity % | barometer mb |
| 20260902234504 | 36 | 121 | 6.4 | 12.9 | 0.00 | 0.00 | 0.00 | 44 | 1007.9 |
| 20260902233604 | 37 | 103 | 4.8 | 14.5 | 0.00 | 0.00 | 0.00 | 41 | 1007.8 |
| 20260902232704 | 37 | 60 | 6.4 | 16.1 | 0.00 | 0.00 | 0.00 | 38 | 1007.7 |
| 20260902231805 | 38 | 61 | 3.2 | 12.9 | 0.00 | 0.00 | 0.00 | 37 | 1007.6 |
| 20260902230925 | 38 | 58 | 4.8 | 14.5 | 0.00 | 0.00 | 0.00 | 36 | 1007.7 |
| 20260902230004 | 38 | 49 | 4.8 | 14.5 | 0.00 | 0.00 | 0.00 | 35 | 1007.8 |
| 20260902225404 | 38 | 58 | 8.0 | 19.3 | 0.00 | 0.00 | 0.00 | 36 | 1007.7 |
| 20260902224504 | 38 | 51 | 8.0 | 22.5 | 0.00 | 0.00 | 0.00 | 34 | 1007.6 |
| 20260902223625 | 38 | 8 | 8.0 | 17.7 | 0.00 | 0.00 | 0.00 | 36 | 1007.7 |
| 20260902222705 | 38 | 37 | 8.0 | 17.7 | 0.00 | 0.00 | 0.00 | 36 | 1007.7 |
| 20260902221805 | 38 | 27 | 6.4 | 19.3 | 0.00 | 0.00 | 0.00 | 36 | 1007.8 |
| 20260902220925 | 38 | 33 | 8.0 | 25.7 | 0.00 | 0.00 | 0.00 | 36 | 1007.8 |
| 20260902220004 | 38 | 22 | 8.0 | 25.7 | 0.00 | 0.00 | 0.00 | 36 | 1007.8 |
| 20260902215405 | 38 | 55 | 6.4 | 19.3 | 0.00 | 0.00 | 0.00 | 36 | 1008.0 |
| 20260902214505 | 38 | 50 | 8.0 | 20.9 | 0.00 | 0.00 | 0.00 | 36 | 1008.0 |
| 20260902213604 | 38 | 39 | 8.0 | 20.9 | 0.00 | 0.00 | 0.00 | 36 | 1008.0 |
| 20260902212704 | 38 | 23 | 9.7 | 19.3 | 0.00 | 0.00 | 0.00 | 36 | 1008.2 |
| 20260902211804 | 38 | 49 | 8.0 | 19.3 | 0.00 | 0.00 | 0.00 | 36 | 1008.3 |
| 20260902210904 | 38 | 45 | 6.4 | 16.1 | 0.00 | 0.00 | 0.00 | 37 | 1008.2 |
| 20260902210004 | 38 | 40 | 8.0 | 19.3 | 0.00 | 0.00 | 0.00 | 36 | 1008.4 |
| 20260902205404 | 38 | 47 | 9.7 | 20.9 | 0.00 | 0.00 | 0.00 | 35 | 1008.5 |
| 20260902204505 | 39 | 52 | 4.8 | 16.1 | 0.00 | 0.00 | 0.00 | 35 | 1008.5 |
| 20260902203604 | 38 | 37 | 6.4 | 17.7 | 0.00 | 0.00 | 0.00 | 38 | 1008.6 |
| 20260902202704 | 38 | 33 | 9.7 | 22.5 | 0.00 | 0.00 | 0.00 | 38 | 1008.7 |
| 20260902201804 | 38 | 16 | 8.0 | 17.7 | 0.00 | 0.00 | 0.00 | 38 | 1008.9 |
| 20260902200904 | 38 | 13 | 8.0 | 17.7 | 0.00 | 0.00 | 0.00 | 38 | 1009.1 |
| 20260902200025 | 38 | 15 | 8.0 | 17.7 | 0.00 | 0.00 | 0.00 | 38 | 1009.1 |
| 20260902195404 | 38 | 25 | 8.0 | 17.7 | 0.00 | 0.00 | 0.00 | 39 | 1009.2 |
| 20260902194504 | 38 | 24 | 8.0 | 17.7 | 0.00 | 0.00 | 0.00 | 38 | 1009.4 |
| 20260902193604 | 38 | 18 | 9.7 | 20.9 | 0.00 | 0.00 | 0.00 | 38 | 1009.5 |
| 20260902192704 | 38 | 19 | 8.0 | 17.7 | 0.00 | 0.00 | 0.00 | 39 | 1009.7 |
| 20260902191805 | 38 | 51 | 6.4 | 20.9 | 0.00 | 0.00 | 0.00 | 39 | 1009.8 |
| 20260902190904 | 37 | 42 | 8.0 | 16.1 | 0.00 | 0.00 | 0.00 | 40 | 1010.0 |
| 20260902190004 | 38 | 48 | 8.0 | 16.1 | 0.00 | 0.00 | 0.00 | 39 | 1010.2 |
| 20260902185404 | 38 | 40 | 6.4 | 16.1 | 0.00 | 0.00 | 0.00 | 39 | 1010.2 |
| 20260902184504 | 37 | 37 | 6.4 | 17.7 | 0.00 | 0.00 | 0.00 | 40 | 1010.3 |
| 20260902183604 | 37 | 33 | 6.4 | 16.1 | 0.00 | 0.00 | 0.00 | 40 | 1010.5 |
| 20260902182705 | 37 | 50 | 6.4 | 16.1 | 0.00 | 0.00 | 0.00 | 41 | 1010.7 |
| 20260902181804 | 37 | 3 | 8.0 | 20.9 | 0.00 | 0.00 | 0.00 | 41 | 1010.8 |
| 20260902180904 | 37 | 41 | 4.8 | 19.3 | 0.00 | 0.00 | 0.00 | 42 | 1011.0 |
| 20260902180006 | 37 | 65 | 3.2 | 11.3 | 0.00 | 0.00 | 0.00 | 44 | 1011.2 |
| 20260902175404 | 36 | 47 | 4.8 | 17.7 | 0.00 | 0.00 | 0.00 | 44 | 1011.3 |
| 20260902174504 | 36 | 48 | 3.2 | 17.7 | 0.00 | 0.00 | 0.00 | 44 | 1011.4 |
| 20260902173604 | 36 | 8 | 4.8 | 12.9 | 0.00 | 0.00 | 0.00 | 45 | 1011.6 |
| 20260902172704 | 36 | 52 | 4.8 | 16.1 | 0.00 | 0.00 | 0.00 | 46 | 1011.8 |
| 20260902171804 | 35 | 53 | 4.8 | 12.9 | 0.00 | 0.00 | 0.00 | 47 | 1011.9 |
| 20260902170925 | 35 | 155 | 3.2 | 6.4 | 0.00 | 0.00 | 0.00 | 47 | 1012.1 |
| 20260902170004 | 35 | 42 | 3.2 | 12.9 | 0.00 | 0.00 | 0.00 | 48 | 1012.1 |
| 20260902165404 | 34 | 39 | 4.8 | 11.3 | 0.00 | 0.00 | 0.00 | 49 | 1012.3 |
| 20260902164504 | 34 | 54 | 1.6 | 11.3 | 0.00 | 0.00 | 0.00 | 50 | 1012.4 |
| 20260902163604 | 33 | 69 | 3.2 | 8.0 | 0.00 | 0.00 | 0.00 | 51 | 1012.4 |
| 20260902162704 | 33 | 80 | 3.2 | 8.0 | 0.00 | 0.00 | 0.00 | 53 | 1012.4 |
| 20260902161804 | 32 | 5 | 4.8 | 8.0 | 0.00 | 0.00 | 0.00 | 56 | 1012.5 |
| 20260902160904 | 32 | 40 | 3.2 | 8.0 | 0.00 | 0.00 | 0.00 | 56 | 1012.7 |
| 20260902160007 | 31 | 101 | 1.6 | 4.8 | 0.00 | 0.00 | 0.00 | 60 | 1012.7 |
| 20260902155404 | 31 | 66 | 1.6 | 4.8 | 0.00 | 0.00 | 0.00 | 62 | 1012.6 |
| 20260902154504 | 30 | 40 | 1.6 | 8.0 | 0.00 | 0.00 | 0.00 | 63 | 1012.7 |
| 20260902153605 | 30 | 148 | 1.6 | 6.4 | 0.00 | 0.00 | 0.00 | 64 | 1012.6 |
| 20260902152705 | 30 | 62 | 1.6 | 6.4 | 0.00 | 0.00 | 0.00 | 65 | 1012.6 |
| 20260902151825 | 29 | 41 | 1.6 | 8.0 | 0.00 | 0.00 | 0.00 | 66 | 1012.7 |
| 20260902150904 | 28 | 53 | 4.8 | 8.0 | 0.00 | 0.00 | 0.00 | 67 | 1012.6 |
| 20260902150025 | 28 | 60 | 3.2 | 8.0 | 0.00 | 0.00 | 0.00 | 70 | 1012.6 |
| 20260902145404 | 28 | 58 | 1.6 | 6.4 | 0.00 | 0.00 | 0.00 | 70 | 1012.7 |
| 20260902144504 | 28 | 112 | 3.2 | 6.4 | 0.00 | 0.00 | 0.00 | 71 | 1012.6 |
| 20260902143604 | 28 | 143 | 1.6 | 8.0 | 0.00 | 0.00 | 0.00 | 71 | 1012.7 |
| 20260902142705 | 27 | 153 | 1.6 | 8.0 | 0.00 | 0.00 | 0.00 | 72 | 1012.7 |
| 20260902141804 | 27 | 148 | 1.6 | 6.4 | 0.00 | 0.00 | 0.00 | 73 | 1012.7 |
| 20260902140904 | 27 | 152 | 1.6 | 6.4 | 0.00 | 0.00 | 0.00 | 74 | 1012.7 |
| 20260902140025 | 27 | 154 | 1.6 | 8.0 | 0.00 | 0.00 | 0.00 | 74 | 1012.5 |
| 20260902135404 | 27 | 152 | 1.6 | 8.0 | 0.00 | 0.00 | 0.00 | 75 | 1012.7 |
| 20260902134504 | 26 | 87 | 0.0 | 4.8 | 0.00 | 0.00 | 0.00 | 77 | 1012.5 |
| 20260902133604 | 26 | 135 | 1.6 | 8.0 | 0.00 | 0.00 | 0.00 | 77 | 1012.6 |
| 20260902132705 | 26 | 135 | 3.2 | 9.7 | 0.00 | 0.00 | 0.00 | 77 | 1012.7 |
| 20260902131804 | 25 | 132 | 1.6 | 6.4 | 0.00 | 0.00 | 0.00 | 79 | 1012.7 |
| 20260902130925 | 25 | 0 | 0.0 | 0.0 | 0.00 | 0.00 | 0.00 | 80 | 1012.6 |
| 20260902130025 | 25 | 0 | 0.0 | 0.0 | 0.00 | 0.00 | 0.00 | 80 | 1012.4 |
| 20260902125425 | 24 | 0 | 0.0 | 0.0 | 0.00 | 0.00 | 0.00 | 80 | 1012.3 |
| 20260902124504 | 24 | 0 | 0.0 | 0.0 | 0.00 | 0.00 | 0.00 | 80 | 1012.1 |
| 20260902123625 | 24 | 0 | 0.0 | 0.0 | 0.00 | 0.00 | 0.00 | 79 | 1012.1 |
| 20260902122725 | 24 | 0 | 0.0 | 0.0 | 0.00 | 0.00 | 0.00 | 80 | 1012.0 |
| 20260902121825 | 24 | 0 | 0.0 | 0.0 | 0.00 | 0.00 | 0.00 | 80 | 1012.0 |
| 20260902120905 | 24 | 0 | 0.0 | 0.0 | 0.00 | 0.00 | 0.00 | 80 | 1012.0 |
| 20260902120025 | 24 | 0 | 0.0 | 0.0 | 0.00 | 0.00 | 0.00 | 79 | 1012.0 |
| 20260902115404 | 24 | 0 | 0.0 | 0.0 | 0.00 | 0.00 | 0.00 | 79 | 1012.0 |
| 20260902114504 | 25 | 0 | 0.0 | 0.0 | 0.00 | 0.00 | 0.00 | 78 | 1012.1 |
| 20260902113604 | 25 | 0 | 0.0 | 0.0 | 0.00 | 0.00 | 0.00 | 77 | 1012.1 |
| 20260902112704 | 25 | 0 | 0.0 | 0.0 | 0.00 | 0.00 | 0.00 | 76 | 1012.0 |
| 20260902111804 | 25 | 0 | 0.0 | 0.0 | 0.00 | 0.00 | 0.00 | 77 | 1011.9 |
| 20260902110904 | 25 | 0 | 0.0 | 0.0 | 0.00 | 0.00 | 0.00 | 77 | 1011.9 |
| 20260902110007 | 25 | 0 | 0.0 | 0.0 | 0.00 | 0.00 | 0.00 | 77 | 1012.0 |
| 20260902105404 | 25 | 0 | 0.0 | 0.0 | 0.00 | 0.00 | 0.00 | 77 | 1012.0 |
| 20260902104504 | 25 | 0 | 0.0 | 0.0 | 0.00 | 0.00 | 0.00 | 77 | 1012.1 |
| 20260902103604 | 25 | 0 | 0.0 | 0.0 | 0.00 | 0.00 | 0.00 | 77 | 1012.1 |
| 20260902102704 | 25 | 0 | 0.0 | 0.0 | 0.00 | 0.00 | 0.00 | 76 | 1012.0 |
| 20260902101804 | 25 | 0 | 0.0 | 0.0 | 0.00 | 0.00 | 0.00 | 75 | 1011.9 |
| 20260902100904 | 26 | 0 | 0.0 | 0.0 | 0.00 | 0.00 | 0.00 | 75 | 1011.8 |
| 20260902100004 | 26 | 0 | 0.0 | 0.0 | 0.00 | 0.00 | 0.00 | 73 | 1011.8 |
| 20260902095404 | 26 | 0 | 0.0 | 0.0 | 0.00 | 0.00 | 0.00 | 73 | 1011.9 |
| 20260902094525 | 26 | 0 | 0.0 | 0.0 | 0.00 | 0.00 | 0.00 | 72 | 1011.9 |
| 20260902093604 | 26 | 0 | 0.0 | 0.0 | 0.00 | 0.00 | 0.00 | 71 | 1011.8 |
| 20260902092704 | 26 | 0 | 0.0 | 0.0 | 0.00 | 0.00 | 0.00 | 72 | 1011.8 |
| 20260902091804 | 26 | 0 | 0.0 | 0.0 | 0.00 | 0.00 | 0.00 | 72 | 1011.8 |
| 20260902090905 | 26 | 0 | 0.0 | 0.0 | 0.00 | 0.00 | 0.00 | 72 | 1011.9 |
| 20260902090005 | 26 | 0 | 0.0 | 0.0 | 0.00 | 0.00 | 0.00 | 71 | 1011.9 |
| 20260902085425 | 26 | 0 | 0.0 | 0.0 | 0.00 | 0.00 | 0.00 | 71 | 1011.9 |
| 20260902084504 | 27 | 0 | 0.0 | 0.0 | 0.00 | 0.00 | 0.00 | 71 | 1011.8 |
| 20260902083604 | 27 | 0 | 0.0 | 0.0 | 0.00 | 0.00 | 0.00 | 70 | 1011.9 |
| 20260902082725 | 27 | 0 | 0.0 | 0.0 | 0.00 | 0.00 | 0.00 | 70 | 1012.0 |
| 20260902081804 | 27 | 159 | 0.0 | 4.8 | 0.00 | 0.00 | 0.00 | 69 | 1011.9 |
| 20260902080904 | 27 | 151 | 3.2 | 8.0 | 0.00 | 0.00 | 0.00 | 69 | 1012.0 |
| 20260902080004 | 27 | 155 | 1.6 | 8.0 | 0.00 | 0.00 | 0.00 | 69 | 1012.1 |
| 20260902075404 | 27 | 156 | 1.6 | 6.4 | 0.00 | 0.00 | 0.00 | 68 | 1012.0 |
| 20260902074504 | 27 | 158 | 1.6 | 8.0 | 0.00 | 0.00 | 0.00 | 68 | 1012.0 |
| 20260902073604 | 27 | 166 | 3.2 | 8.0 | 0.00 | 0.00 | 0.00 | 68 | 1012.2 |
| 20260902072704 | 27 | 165 | 3.2 | 8.0 | 0.00 | 0.00 | 0.00 | 67 | 1012.1 |
| 20260902071825 | 28 | 160 | 3.2 | 8.0 | 0.00 | 0.00 | 0.00 | 67 | 1012.2 |
| 20260902070904 | 28 | 163 | 3.2 | 8.0 | 0.00 | 0.00 | 0.00 | 67 | 1012.1 |
| 20260902070006 | 28 | 160 | 3.2 | 11.3 | 0.00 | 0.00 | 0.00 | 67 | 1012.2 |
| 20260902065404 | 28 | 164 | 4.8 | 11.3 | 0.00 | 0.00 | 0.00 | 67 | 1012.2 |
| 20260902064504 | 28 | 161 | 4.8 | 11.3 | 0.00 | 0.00 | 0.00 | 67 | 1012.2 |
| 20260902063604 | 28 | 159 | 4.8 | 11.3 | 0.00 | 0.00 | 0.00 | 66 | 1012.2 |
| 20260902062704 | 28 | 164 | 3.2 | 9.7 | 0.00 | 0.00 | 0.00 | 66 | 1012.1 |
| 20260902061804 | 28 | 160 | 3.2 | 11.3 | 0.00 | 0.00 | 0.00 | 66 | 1012.1 |
| 20260902060904 | 28 | 163 | 4.8 | 11.3 | 0.00 | 0.00 | 0.00 | 66 | 1012.0 |
| 20260902060004 | 28 | 160 | 4.8 | 12.9 | 0.00 | 0.00 | 0.00 | 66 | 1012.0 |
| 20260902055404 | 28 | 161 | 4.8 | 12.9 | 0.00 | 0.00 | 0.00 | 66 | 1011.9 |
| 20260902054504 | 28 | 161 | 4.8 | 14.5 | 0.00 | 0.00 | 0.00 | 66 | 1011.8 |
| 20260902053604 | 28 | 158 | 4.8 | 12.9 | 0.00 | 0.00 | 0.00 | 66 | 1011.8 |
| 20260902052725 | 28 | 154 | 3.2 | 9.7 | 0.00 | 0.00 | 0.00 | 65 | 1011.7 |
| 20260902051804 | 28 | 158 | 3.2 | 11.3 | 0.00 | 0.00 | 0.00 | 65 | 1011.7 |
| 20260902050925 | 28 | 157 | 3.2 | 8.0 | 0.00 | 0.00 | 0.00 | 64 | 1011.7 |
| 20260902050025 | 29 | 156 | 4.8 | 9.7 | 0.00 | 0.00 | 0.00 | 64 | 1011.7 |
| 20260902045404 | 29 | 155 | 4.8 | 12.9 | 0.00 | 0.00 | 0.00 | 63 | 1011.7 |
| 20260902044525 | 29 | 151 | 6.4 | 14.5 | 0.00 | 0.00 | 0.00 | 63 | 1011.7 |
| 20260902043625 | 29 | 148 | 6.4 | 16.1 | 0.00 | 0.00 | 0.00 | 62 | 1011.7 |
| 20260902042704 | 30 | 144 | 8.0 | 16.1 | 0.00 | 0.00 | 0.00 | 61 | 1011.6 |
| 20260902041825 | 30 | 145 | 4.8 | 19.3 | 0.00 | 0.00 | 0.00 | 60 | 1011.6 |
| 20260902040904 | 30 | 138 | 4.8 | 16.1 | 0.00 | 0.00 | 0.00 | 58 | 1011.5 |
| 20260902040004 | 30 | 137 | 4.8 | 12.9 | 0.00 | 0.00 | 0.00 | 57 | 1011.4 |
| 20260902035404 | 30 | 138 | 4.8 | 12.9 | 0.00 | 0.00 | 0.00 | 57 | 1011.3 |
| 20260902034504 | 31 | 139 | 1.6 | 6.4 | 0.00 | 0.00 | 0.00 | 56 | 1011.4 |
| 20260902033604 | 31 | 159 | 1.6 | 6.4 | 0.00 | 0.00 | 0.00 | 55 | 1011.1 |
| 20260902032704 | 31 | 152 | 0.0 | 6.4 | 0.00 | 0.00 | 0.00 | 55 | 1011.0 |
| 20260902031804 | 31 | 151 | 1.6 | 4.8 | 0.00 | 0.00 | 0.00 | 54 | 1011.0 |
| 20260902030904 | 31 | 151 | 0.0 | 4.8 | 0.00 | 0.00 | 0.00 | 54 | 1010.9 |
| 20260902030004 | 31 | 154 | 1.6 | 6.4 | 0.00 | 0.00 | 0.00 | 53 | 1010.8 |
| 20260902025404 | 31 | 151 | 1.6 | 6.4 | 0.00 | 0.00 | 0.00 | 53 | 1010.7 |
| 20260902024504 | 31 | 147 | 0.0 | 4.8 | 0.00 | 0.00 | 0.00 | 53 | 1010.6 |
| 20260902023625 | 31 | 138 | 1.6 | 4.8 | 0.00 | 0.00 | 0.00 | 52 | 1010.5 |
| 20260902022725 | 32 | 113 | 1.6 | 4.8 | 0.00 | 0.00 | 0.00 | 51 | 1010.3 |
| 20260902021804 | 32 | 92 | 0.0 | 4.8 | 0.00 | 0.00 | 0.00 | 51 | 1010.1 |
| 20260902020904 | 32 | 81 | 1.6 | 6.4 | 0.00 | 0.00 | 0.00 | 50 | 1010.1 |
| 20260902020004 | 32 | 98 | 0.0 | 6.4 | 0.00 | 0.00 | 0.00 | 50 | 1010.0 |
| 20260902015404 | 32 | 105 | 0.0 | 1.6 | 0.00 | 0.00 | 0.00 | 49 | 1009.9 |
| 20260902014504 | 33 | 0 | 0.0 | 0.0 | 0.00 | 0.00 | 0.00 | 48 | 1009.8 |
| 20260902013603 | 33 | 114 | 0.0 | 3.2 | 0.00 | 0.00 | 0.00 | 48 | 1009.7 |
| 20260902012704 | 33 | 112 | 0.0 | 3.2 | 0.00 | 0.00 | 0.00 | 48 | 1009.7 |
| 20260902011804 | 33 | 108 | 0.0 | 3.2 | 0.00 | 0.00 | 0.00 | 47 | 1009.6 |
| 20260902010925 | 33 | 102 | 1.6 | 4.8 | 0.00 | 0.00 | 0.00 | 47 | 1009.5 |
| 20260902010004 | 34 | 91 | 1.6 | 4.8 | 0.00 | 0.00 | 0.00 | 46 | 1009.4 |
| 20260902005404 | 34 | 85 | 1.6 | 4.8 | 0.00 | 0.00 | 0.00 | 45 | 1009.4 |
| 20260902004504 | 35 | 85 | 1.6 | 4.8 | 0.00 | 0.00 | 0.00 | 45 | 1009.4 |
| 20260902003604 | 35 | 87 | 1.6 | 6.4 | 0.00 | 0.00 | 0.00 | 44 | 1009.4 |
| 20260902002704 | 35 | 88 | 1.6 | 6.4 | 0.00 | 0.00 | 0.00 | 43 | 1009.4 |
| 20260902001804 | 35 | 79 | 1.6 | 8.0 | 0.00 | 0.00 | 0.00 | 42 | 1009.4 |
| 20260902000904 | 36 | 82 | 3.2 | 6.4 | 0.00 | 0.00 | 0.00 | 42 | 1009.6 |
| 20260902000025 | 36 | 75 | 3.2 | 9.7 | 0.00 | 0.00 | 0.00 | 41 | 1009.5 |
| 20260901235404 | 36 | 67 | 6.4 | 16.1 | 0.00 | 0.00 | 0.00 | 40 | 1009.5 |